Вернуться в каталог

SL-12 DEB

LostHEO
NORAD 41689·DEBRIS·🇷🇺 Russia

Запущен Oct 26, 2007 с Baikonur Cosmodrome

Loading…

Ближайшие Пролёты (ближайшие 24 часа)

TLE

УстаревшееSource: Space-Track

Эпоха: Feb 6, 2018, 18:42 UTC

1 41689U 07052W   18037.77969986  .01888812  00000-0  14051+0 0  9998
2 41689  64.9111 257.3614 4886402  14.7148 355.6075  5.86778452 55796

Отслеживайте SL-12 DEB в реальном времени с AllMySat

Download on the App Store